This is the latest recevied weather packets stored in our database for station/object KB3VSP. If no packets are shown the sender has not sent any weather packets the latest 1 day(s).
| Time | Temp. | Humidity | Pressure | Rain* | Wind** | Luminosity | Snow |
|---|---|---|---|---|---|---|---|
| 1777981894 | 17.22° C | 71% | 1008.6 hPa | 0 mm | 1.34 m/s, 229° | 14 W/m² | - |
| 1777981590 | 17.22° C | 71% | 1008.7 hPa | 0 mm | 1.34 m/s, 289° | 19 W/m² | - |
| 1777981287 | 17.22° C | 71% | 1008.7 hPa | 0 mm | 0.89 m/s, 338° | 35 W/m² | - |
| 1777980983 | 17.22° C | 72% | 1008.6 hPa | 0 mm | 0.89 m/s, 137° | 37 W/m² | - |
| 1777980680 | 17.22° C | 72% | 1008.7 hPa | 0 mm | 0.45 m/s, 68° | 39 W/m² | - |
| 1777980376 | 16.67° C | 73% | 1008.6 hPa | 0 mm | 0.89 m/s, 56° | 31 W/m² | - |
| 1777980074 | 16.67° C | 73% | 1008.5 hPa | 0 mm | 0.89 m/s, 18° | 25 W/m² | - |
| 1777979768 | 16.67° C | 74% | 1008.5 hPa | 0 mm | 0.45 m/s, 60° | 21 W/m² | - |
| 1777979464 | 16.67° C | 74% | 1008.7 hPa | 0 mm | 0.89 m/s, 194° | 19 W/m² | - |
| 1777979161 | 16.67° C | 74% | 1008.5 hPa | 0 mm | 0.45 m/s, 64° | 17 W/m² | - |
| 1777978858 | 16.67° C | 74% | 1008.7 hPa | 0 mm | 0.45 m/s, 50° | 15 W/m² | - |
| 1777978554 | 16.67° C | 75% | 1008.3 hPa | 0 mm | 0.45 m/s, 61° | 11 W/m² | - |
| 1777978250 | 16.11° C | 75% | 1008.3 hPa | 0 mm | 0.89 m/s, 33° | 8 W/m² | - |
| 1777977947 | 16.67° C | 75% | 1008.2 hPa | 0 mm | 0 m/s | 5 W/m² | - |
| 1777977645 | 16.67° C | 74% | 1008.1 hPa | 0 mm | 0 m/s | 3 W/m² | - |
| 1777977341 | 16.67° C | 74% | 1008.2 hPa | 0 mm | 0.45 m/s, 7° | 2 W/m² | - |
| 1777977039 | 16.67° C | 74% | 1008.1 hPa | 0 mm | 0 m/s | 1 W/m² | - |
| 1777976736 | 16.67° C | 74% | 1008.1 hPa | 0 mm | 0.45 m/s, 82° | 0 W/m² | - |
| 1777976433 | 16.67° C | 74% | 1008.1 hPa | 0 mm | 0.89 m/s, 136° | 0 W/m² | - |
| 1777976132 | 16.67° C | 73% | 1008 hPa | 0 mm | 0.45 m/s, 49° | 0 W/m² | - |
| 1777975828 | 17.22° C | 72% | 1008 hPa | 0 mm | 0.89 m/s, 328° | 0 W/m² | - |
| 1777975525 | 17.22° C | 71% | 1007.9 hPa | 0 mm | 1.34 m/s, 89° | 0 W/m² | - |
| 1777975222 | 17.22° C | 71% | 1008 hPa | 0 mm | 0.89 m/s, 72° | 0 W/m² | - |
| 1777974918 | 17.22° C | 72% | 1007.7 hPa | 0 mm | 0.45 m/s, 10° | 0 W/m² | - |
| 1777974614 | 17.22° C | 72% | 1007.8 hPa | 0 mm | 1.34 m/s, 271° | 0 W/m² | - |
* Rain latest hour (hover to see other rain measurements)
** Current wind speed in m/s (hover to see current wind gust speed)